Overview Statistics Trail Chart Weather Telemetry Raw packets
 

This is the latest recevied weather packets stored in our database for station/object KN6CRX-10. If no packets are shown the sender has not sent any weather packets the latest 10 day(s).

<< 1 2 3 4 >>
Time Temp. Humidity Pressure Rain* Wind** Luminosity Snow
1788440949 8.33° C 68% 1017.1 hPa 0 mm - 10 W/m² -
1788440645 8.33° C 64% 1016.8 hPa 0 mm - 7 W/m² -
1788440343 8.33° C 64% 1016.6 hPa 0 mm - 5 W/m² -
1788440038 8.33° C 61% 1016.9 hPa 0 mm - 3 W/m² -
1788439737 8.89° C 58% 1016.8 hPa 0 mm - 1 W/m² -
1788439433 8.89° C 65% 1016.8 hPa 0 mm - 1 W/m² -
1788439132 8.89° C 59% 1016.8 hPa 0 mm - 0 W/m² -
1788438827 8.89° C 60% 1016.7 hPa 0 mm - 0 W/m² -
1788438525 8.89° C 59% 1016.4 hPa 0 mm - 0 W/m² -
1788438220 9.44° C 58% 1016.6 hPa 0 mm - 0 W/m² -
1788437945 9.44° C 58% 1016.4 hPa 0 mm - 0 W/m² -
1788437614 9.44° C 57% 1016.4 hPa 0 mm - 0 W/m² -
1788437310 9.44° C 58% 1016.7 hPa 0 mm - 0 W/m² -
1788437009 9.44° C 57% 1016.6 hPa 0 mm - 0 W/m² -
1788436707 9.44° C 58% 1016.3 hPa 0 mm - 0 W/m² -
1788436402 9.44° C 60% 1016.4 hPa 0 mm - 0 W/m² -
1788436102 9.44° C 61% 1016.2 hPa 0 mm - 0 W/m² -
1788435799 9.44° C 61% 1016.6 hPa 0 mm - 0 W/m² -
1788435494 10° C 59% 1016.3 hPa 0 mm - 0 W/m² -
1788435189 10° C 59% 1016.3 hPa 0 mm - 0 W/m² -
1788434885 10° C 58% 1016.2 hPa 0 mm - 0 W/m² -
1788434580 10° C 59% 1016.2 hPa 0 mm - 0 W/m² -
1788434279 10° C 60% 1016.3 hPa 0 mm - 0 W/m² -
1788433974 10° C 59% 1016.2 hPa 0 mm - 0 W/m² -
1788433670 10° C 60% 1016.2 hPa 0 mm - 0 W/m² -

* Rain latest hour (hover to see other rain measurements)
** Current wind speed in m/s (hover to see current wind gust speed)